Regional Weather Roundup
Issued by NWS Midland/Odessa, TX

Skip options and go directly to product.
Home | Oldest Version | Previous Version | Current Version | All | Text Only | Save Text | Print | Product List | Glossary Off

Skip product version selection by date and time.   

725
ASUS44 KMAF 250810
RWRMAF
MIDLAND AREA WEATHER ROUNDUP
NATIONAL WEATHER SERVICE MIDLAND TX
300 AM CDT FRI JUL 25 2014

...IN SOUTHWEST TEXAS AND SOUTHEAST NEW MEXICO...

CITY           SKY/WX    TMP DP  RH WIND       PRES   REMARKS
ALPINE         CLEAR     73  55  52 SW5       30.25F
ANDREWS        FAIR      78  59  51 S7        30.11F
ARTESIA        CLEAR     75  46  35 S7        30.11S
BIG SPRING     CLEAR     79  61  53 S7        30.10S
CARLSBAD       CLEAR     80  50  34 S7        30.08F
DRYDEN           N/A     80  64  58 NE6       30.05F
FORT STOCKTON  CLEAR     77  59  53 S12       30.10S
GUAD PASS      CLEAR     75  49  39 VRB5        N/A
HOBBS          CLEAR     77  57  50 SE8       30.14F
MARFA          CLEAR     63  52  67 N3        30.25S
MIDLAND AIRPK  CLEAR     80  61  52 S10       30.09F
MIDLAND INTL   CLEAR     80  62  54 S12       30.09F
ODESSA         CLEAR     79  61  53 S10       30.10F
PECOS          CLEAR     75  56  50 E5        30.06R
PRESIDIO       FAIR      81  56  41 N8        30.07F
SEMINOLE       CLEAR     76  58  53 S5        30.13F
SNYDER         CLEAR     77  63  62 S6        30.08S
WINK           CLEAR     81  60  48 SE9       30.06F
$$
...OTHER STATIONS IN TEXAS...

CITY           SKY/WX    TMP DP  RH WIND       PRES   REMARKS
ABILENE        CLEAR     77  66  68 S7        30.04F
AMARILLO       CLEAR     76  61  59 S17       30.10S
AUSTIN         PTCLDY    75  71  87 S7        30.01R
BROWNSVILLE    CLEAR     79  77  94 S7        29.99S
CORPUS CHRISTI PTCLDY    78  74  87 S6        29.99S
DALLAS FTW     CLEAR     77  68  73 SE6       30.01S
DEL RIO        CLEAR     79  67  66 E3        30.00S
EL PASO        PTCLDY    80  52  37 CALM      30.11S
HOUSTON INT    PTCLDY    75  72  90 CALM      30.01R
LUBBOCK        CLEAR     78  61  55 S12       30.10F
SAN ANGELO     CLEAR     74  63  68 SW5       30.05F
SAN ANTONIO    PTCLDY    79  70  74 S8        30.03S
WACO           CLEAR     77  68  73 SE5       30.00S
WICHITA FALLS  NOT AVBL
$$
...OTHER LOCATIONS IN NEW MEXICO...

CITY           SKY/WX    TMP DP  RH WIND       PRES   REMARKS
ALAMAGORDO     CLEAR     81  43  26 S8        30.14S
ALBUQUERQUE    PTCLDY    77  40  26 S9        30.21F
CANNON AFB     CLEAR     68  56  66 S8        30.16S
CLOVIS         CLEAR     72  55  56 S10       30.17
HOLLOMAN AFB   CLEAR     77  44  30 S7        30.12S
ROSWELL        CLEAR     78  47  33 S10       30.11S
RUIDOSO        CLEAR     66  41  39 NW3       30.37F
SANTA FE       CLEAR     68  43  40 SE3       30.27F
TRUTH OR CONSE CLEAR     73  44  35 S6        30.18S
TUCUMCARI      CLEAR     79  49  34 SW13      30.08F
$$

USA.gov is the U.S. government's official web portal to all federal, state and local government web resources and services.